Weather History for Akron Canton, OH

Change the Weather History Date:

Friday, June 14, 2013

  Actual Average Record
Temperature  
Mean Temperature 64 °F 68 °F  
Max Temperature 73 °F 78 °F 93 °F (1967)
Min Temperature 54 °F 58 °F 43 °F (1959)
Degree Days  
Heating Degree Days 1 2  
Month to date heating degree days 25 37  
Since 1 June heating degree days 25 37  
Since 1 July heating degree days 5827 6138  
Cooling Degree Days 0 4  
Month to date cooling degree days 40 45  
Year to date cooling degree days 146 87  
Since 1 June cooling degree days 40 45  
Growing Degree Days 14 (Base 50)    
Moisture  
Dew Point 54 °F    
Average Humidity 75    
Maximum Humidity 93    
Minimum Humidity 57    
Precipitation  
Precipitation 0.00 in 0.12 in 1.17 in (1989)
Month to date precipitation 3.37 1.78  
Year to date precipitation 15.63 17.51  
Snow  
Snow 0.00 in 0.00 in - ()
Month to date snowfall 0.0 0.0  
Since 1 June snowfall 0.0 0.0  
Since 1 July snowfall 47.2 47.5  
Snow Depth 0.00 in    
Sea Level Pressure  
Sea Level Pressure 29.98 in    
Wind  
Wind Speed 8 mph (NNW)    
Max Wind Speed 15 mph    
Max Gust Speed 21 mph    
Visibility 9 miles    
Events      
T = Trace of Precipitation, MM = Missing Value Source: NWS Daily Summary

Daily Weather History Graph

Daily Weather History Graph

Search for Another Location

Airport:

Trip Planner

Search our weather history database for the weather conditions in past years. The results will help you decide how hot, cold, wet, or windy it might be!

Date:

Astronomy

Jun. 14, 2013 Rise Set
Actual Time 5:53 AM EDT 8:59 PM EDT
Civil Twilight 5:19 AM EDT 9:32 PM EDT
Nautical Twilight 4:37 AM EDT 10:15 PM EDT
Astronomical Twilight 3:46 AM EDT 11:06 PM EDT
Moon 11:29 AM EDT (6/14) 12:02 AM EDT (6/14)
Length of Visible Light 16h 12m
Length of Day
15h 05m
Waxing Crescent, 30% of the Moon is Illuminated
Jun 14
Waxing Crescent
Jun 16
First Quarter
Jun 23
Full
Jun 30
Last Quarter
Jul 8
New

Hourly Weather History & Observations

Time (EDT) Temp. Dew Point Humidity Pressure Visibility Wind Dir Wind Speed Gust Speed Precip Events Conditions
12:51 AM 59.0 °F 55.0 °F 87% 29.86 in 10.0 mi NNW 8.1 mph - N/A   Scattered Clouds
1:51 AM 59.0 °F 55.0 °F 87% 29.87 in 10.0 mi NW 8.1 mph - N/A   Clear
2:51 AM 57.9 °F 54.0 °F 87% 29.86 in 10.0 mi NNW 9.2 mph - N/A   Clear
3:51 AM 57.0 °F 54.0 °F 89% 29.87 in 10.0 mi NNW 9.2 mph - N/A   Clear
4:51 AM 57.0 °F 53.1 °F 87% 29.87 in 9.0 mi NNW 6.9 mph - N/A   Clear
5:51 AM 55.9 °F 53.1 °F 90% 29.88 in 7.0 mi NNW 8.1 mph - N/A   Clear
6:02 AM 57.2 °F 53.6 °F 88% 29.90 in 7.0 mi NNW 9.2 mph - N/A   Scattered Clouds
6:05 AM 57.2 °F 53.6 °F 88% 29.90 in 7.0 mi NNW 8.1 mph - N/A   Mostly Cloudy
6:51 AM 57.9 °F 55.0 °F 90% 29.91 in 6.0 mi North 11.5 mph - N/A   Overcast
7:51 AM 59.0 °F 55.0 °F 87% 29.94 in 6.0 mi North 8.1 mph - N/A   Overcast
8:51 AM 60.1 °F 55.0 °F 83% 29.96 in 6.0 mi North 8.1 mph - N/A   Haze
9:51 AM 62.1 °F 55.9 °F 80% 29.99 in 6.0 mi North 6.9 mph - N/A   Haze
10:26 AM 62.6 °F 55.4 °F 77% 30.01 in 6.0 mi NNW 6.9 mph - N/A   Haze
10:51 AM 63.0 °F 55.9 °F 78% 30.01 in 7.0 mi NNW 6.9 mph - N/A   Overcast
11:51 AM 66.0 °F 57.0 °F 73% 30.02 in 7.0 mi NNW 10.4 mph - N/A   Overcast
12:13 PM 66.2 °F 57.2 °F 73% 30.03 in 8.0 mi North 8.1 mph - N/A   Overcast
12:51 PM 66.9 °F 55.9 °F 68% 30.03 in 8.0 mi NNW 11.5 mph - N/A   Mostly Cloudy
1:51 PM 68.0 °F 55.9 °F 65% 30.04 in 10.0 mi North 9.2 mph - N/A   Mostly Cloudy
2:51 PM 69.1 °F 55.9 °F 63% 30.04 in 10.0 mi North 9.2 mph - N/A   Mostly Cloudy
3:51 PM 71.1 °F 57.0 °F 61% 30.02 in 10.0 mi North 10.4 mph - N/A   Scattered Clouds
4:51 PM 71.1 °F 55.0 °F 57% 30.01 in 10.0 mi NNW 11.5 mph - N/A   Scattered Clouds
5:51 PM 72.0 °F 55.9 °F 57% 30.02 in 10.0 mi North 8.1 mph - N/A   Scattered Clouds
6:51 PM 70.0 °F 55.0 °F 59% 30.03 in 10.0 mi NNW 10.4 mph - N/A   Partly Cloudy
7:51 PM 68.0 °F 54.0 °F 61% 30.04 in 10.0 mi NW 8.1 mph - N/A   Partly Cloudy
8:51 PM 63.0 °F 52.0 °F 67% 30.04 in 10.0 mi NW 6.9 mph - N/A   Clear
9:51 PM 60.1 °F 50.0 °F 69% 30.06 in 10.0 mi North 5.8 mph - N/A   Clear
10:51 PM 57.9 °F 50.0 °F 75% 30.08 in 10.0 mi NW 3.5 mph - N/A   Clear
11:51 PM 57.9 °F 50.0 °F 75% 30.09 in 10.0 mi Calm Calm - N/A   Clear